GW2644 Weather Reports


Display with metric or nautical units.
time (UTC)temp
F
wind
direction
speed
MPH
gust
MPH
rain 1hr
in
rain 24hr
in
rain mn
in
humidity
%
barometer
mb
20260510112531 62 216 0.0 3.0 0.00 0.00 0.00 90 1016.6
20260510112028 62 254 0.0 1.0 0.00 0.00 0.00 91 1016.5
20260510111525 62 234 0.0 2.0 0.00 0.00 0.00 91 1016.5
20260510111021 61 195 0.0 2.0 0.00 0.00 0.00 91 1016.6
20260510110517 62 263 0.0 2.0 0.00 0.00 0.00 91 1016.6
20260510110014 62 261 0.0 2.0 0.00 0.00 0.00 91 1016.7
20260510105508 62 263 0.0 1.0 0.00 0.00 0.00 92 1016.7
20260510105004 62 279 0.0 1.0 0.00 0.00 0.00 91 1016.6
20260510104501 62 270 0.0 0.0 0.00 0.00 0.00 92 1016.6
20260510103957 61 255 0.0 0.0 0.00 0.00 0.00 92 1016.8
20260510103454 61 270 0.0 0.0 0.00 0.00 0.00 92 1016.8
20260510102950 62 263 0.0 1.0 0.00 0.00 0.00 92 1016.7
20260510102446 61 257 1.0 1.0 0.00 0.00 0.00 92 1016.7
20260510101943 61 252 3.0 3.0 0.00 0.00 0.00 91 1016.8
20260510101441 62 249 0.0 2.0 0.00 0.00 0.00 91 1016.9
20260510100939 62 261 0.0 2.0 0.00 0.00 0.00 91 1016.8
20260510100434 62 229 0.0 2.0 0.00 0.00 0.00 92 1016.9
20260510095931 62 255 0.0 1.0 0.00 0.00 0.00 92 1016.7
20260510095427 62 265 2.0 3.0 0.00 0.00 0.00 91 1017.0
20260510094926 62 243 1.0 2.0 0.00 0.00 0.00 91 1017.1
20260510094421 62 206 0.0 2.0 0.00 0.00 0.00 92 1016.9
20260510093917 61 270 0.0 0.0 0.00 0.00 0.00 91 1016.6
20260510093413 62 106 0.0 1.0 0.00 0.00 0.00 91 1016.8
20260510092909 61 246 0.0 2.0 0.00 0.00 0.00 91 1016.8
20260510092406 62 261 0.0 0.0 0.00 0.00 0.00 91 1017.0
20260510091901 62 215 0.0 2.0 0.00 0.00 0.00 91 1016.8
20260510091358 62 240 0.0 1.0 0.00 0.00 0.00 91 1017.0
20260510090855 62 270 0.0 0.0 0.00 0.00 0.00 92 1016.8
20260510090351 61 240 0.0 1.0 0.00 0.00 0.00 92 1016.8
20260510085847 62 261 0.0 0.0 0.00 0.00 0.00 92 1016.8
20260510085342 61 254 0.0 2.0 0.00 0.00 0.00 92 1017.0
20260510084838 62 243 0.0 3.0 0.00 0.00 0.00 92 1016.7
20260510084336 61 225 0.0 2.0 0.00 0.00 0.00 92 1016.9
20260510083832 62 246 0.0 0.0 0.00 0.00 0.00 92 1017.1
20260510083329 61 246 0.0 2.0 0.00 0.00 0.00 92 1016.9
20260510082824 62 270 0.0 1.0 0.00 0.00 0.00 91 1016.9
20260510082322 62 233 0.0 2.0 0.00 0.00 0.00 91 1016.9
20260510081820 62 249 0.0 0.0 0.00 0.00 0.00 92 1017.2
20260510081317 62 240 0.0 1.0 0.00 0.00 0.00 92 1017.1
20260510080813 61 240 0.0 2.0 0.00 0.00 0.00 91 1017.2
20260510080308 62 237 0.0 2.0 0.00 0.00 0.00 91 1017.1
20260510075805 62 215 1.0 2.0 0.00 0.00 0.00 91 1017.2
20260510075306 62 234 0.0 2.0 0.00 0.00 0.00 91 1017.2
20260510074759 62 160 0.0 0.0 0.00 0.00 0.00 92 1017.5
20260510074256 62 166 0.0 0.0 0.00 0.00 0.00 91 1017.1
20260510073752 62 114 0.0 1.0 0.00 0.00 0.00 91 1017.2
20260510073248 62 114 0.0 0.0 0.00 0.00 0.00 91 1017.1
20260510072744 62 114 0.0 2.0 0.00 0.00 0.00 91 1017.3
20260510072241 62 239 0.0 2.0 0.00 0.00 0.00 91 1017.3
20260510071737 62 237 0.0 2.0 0.00 0.00 0.00 91 1017.3
20260510071234 62 120 0.0 2.0 0.00 0.00 0.00 91 1017.3
20260510070732 62 275 0.0 0.0 0.00 0.00 0.00 91 1017.3
20260510070229 62 142 0.0 3.0 0.00 0.00 0.00 91 1017.3
20260510065724 62 90 0.0 2.0 0.00 0.00 0.00 90 1017.5
20260510065220 62 270 0.0 2.0 0.00 0.00 0.00 90 1017.2
20260510064717 62 105 0.0 0.0 0.00 0.00 0.00 90 1017.3
20260510064215 63 259 0.0 2.0 0.00 0.00 0.00 90 1017.2
20260510063711 63 12 0.0 3.0 0.00 0.00 0.00 90 1017.3
20260510063207 63 246 0.0 0.0 0.00 0.00 0.00 90 1017.4
20260510062704 63 283 0.0 1.0 0.00 0.00 0.00 90 1017.2
20260510062200 62 166 0.0 0.0 0.00 0.00 0.00 90 1017.2
20260510061655 63 294 0.0 3.0 0.00 0.00 0.00 90 1017.3
20260510061153 62 270 0.0 0.0 0.00 0.00 0.00 90 1017.3
20260510060649 62 270 0.0 0.0 0.00 0.00 0.00 90 1017.3
20260510060146 62 270 0.0 1.0 0.00 0.00 0.00 90 1017.4
20260510055642 62 285 0.0 1.0 0.00 0.00 0.00 90 1017.4
20260510055140 62 261 0.0 1.0 0.00 0.00 0.00 90 1017.3
20260510054635 62 261 0.0 1.0 0.00 0.00 0.00 91 1017.3
20260510054132 62 264 0.0 2.0 0.00 0.00 0.00 91 1017.3
20260510053630 62 254 1.0 2.0 0.00 0.00 0.00 91 1017.5
20260510053127 62 254 0.0 0.0 0.00 0.00 0.00 91 1017.4
20260510052623 62 262 0.0 1.0 0.00 0.00 0.00 91 1017.5
20260510052120 62 270 0.0 2.0 0.00 0.00 0.00 91 1017.5
20260510051615 62 262 1.0 2.0 0.00 0.00 0.00 90 1017.5
20260510051112 62 254 0.0 1.0 0.00 0.00 0.00 90 1017.4
20260510050609 62 276 0.0 1.0 0.00 0.00 0.00 90 1017.5
20260510050107 62 291 1.0 2.0 0.00 0.00 0.00 90 1017.2
20260510045604 62 253 2.0 2.0 0.00 0.00 0.00 89 1017.3
20260510045100 62 246 0.0 2.0 0.00 0.00 0.00 89 1017.4
20260510044556 62 263 0.0 2.0 0.00 0.00 0.00 89 1017.2
20260510044054 62 286 0.0 3.0 0.00 0.00 0.00 89 1017.2
20260510043548 62 270 2.0 3.0 0.00 0.00 0.00 89 1017.2
20260510043045 63 285 1.0 3.0 0.00 0.00 0.00 89 1017.2
20260510042539 63 279 0.0 2.0 0.00 0.00 0.00 89 1016.9
20260510042034 63 236 2.0 3.0 0.00 0.00 0.00 88 1017.1
20260510041532 63 270 0.0 2.0 0.00 0.00 0.00 88 1017.0
20260510041029 63 257 0.0 3.0 0.00 0.00 0.00 88 1017.0
20260510040525 63 286 1.0 2.0 0.00 0.00 0.00 88 1017.0
20260510040021 63 265 2.0 2.0 0.00 0.00 0.00 87 1016.8
20260510035518 63 337 0.0 2.0 0.00 0.00 0.00 87 1016.8
20260510035017 64 306 0.0 2.0 0.00 0.00 0.00 87 1016.7
20260510034516 64 334 0.0 2.0 0.00 0.00 0.00 86 1016.7
20260510034012 64 265 0.0 3.0 0.00 0.00 0.00 86 1016.7
20260510033508 64 270 0.0 3.0 0.00 0.00 0.00 85 1016.5
20260510033007 65 250 2.0 3.0 0.00 0.00 0.00 85 1016.4
20260510032503 65 246 0.0 4.0 0.00 0.00 0.00 84 1016.3
20260510031957 65 340 0.0 2.0 0.00 0.00 0.00 84 1016.3
20260510031453 65 276 0.0 2.0 0.00 0.00 0.00 83 1016.2
20260510030949 66 252 2.0 3.0 0.00 0.00 0.00 83 1016.0
20260510030444 66 340 0.0 3.0 0.00 0.00 0.00 82 1016.2
20260510025942 66 251 1.0 2.0 0.00 0.00 0.00 81 1016.0
20260510025439 66 270 0.0 3.0 0.00 0.00 0.00 81 1015.9
20260510024937 67 282 0.0 3.0 0.00 0.00 0.00 80 1016.1
20260510024433 67 297 0.0 3.0 0.00 0.00 0.00 80 1015.9
20260510023929 68 259 2.0 3.0 0.00 0.00 0.00 79 1015.8
20260510023425 68 278 0.0 4.0 0.00 0.00 0.00 78 1015.8
20260510022922 68 233 2.0 3.0 0.00 0.00 0.00 77 1015.8
20260510022421 69 301 2.0 3.0 0.00 0.00 0.00 76 1015.8
20260510021920 70 260 4.0 4.0 0.00 0.00 0.00 75 1015.8
20260510021419 71 252 2.0 3.0 0.00 0.00 0.00 72 1015.6
20260510020915 71 243 0.0 4.0 0.00 0.00 0.00 73 1015.5
20260510020410 72 258 0.0 0.0 0.00 0.00 0.00 70 1015.6
20260510015906 72 257 1.0 3.0 0.00 0.00 0.00 70 1015.3
20260510015402 73 221 2.0 4.0 0.00 0.00 0.00 69 1015.3
20260510014857 74 71 0.0 2.0 0.00 0.00 0.00 68 1015.5
20260510014355 73 346 0.0 4.0 0.00 0.00 0.00 68 1015.3
20260510013851 73 257 0.0 2.0 0.00 0.00 0.00 69 1015.5
20260510013346 73 258 2.0 3.0 0.00 0.00 0.00 69 1015.4
20260510012841 74 261 0.0 3.0 0.00 0.00 0.00 69 1015.4
20260510012342 75 257 0.0 3.0 0.00 0.00 0.00 67 1015.2
20260510011837 74 102 0.0 2.0 0.00 0.00 0.00 69 1015.1
20260510011332 74 212 2.0 5.0 0.00 0.00 0.00 69 1015.2
20260510010829 75 212 0.0 3.0 0.00 0.00 0.00 68 1015.1
20260510010326 75 15 0.0 3.0 0.00 0.00 0.00 68 1015.0
20260510005823 75 215 0.0 8.0 0.00 0.00 0.00 68 1015.0
20260510005319 75 203 0.0 5.0 0.00 0.00 0.00 67 1015.1
20260510004817 75 221 0.0 2.0 0.00 0.00 0.00 66 1015.0
20260510004314 74 215 1.0 4.0 0.00 0.00 0.00 66 1014.9
20260510003812 76 248 0.0 4.0 0.00 0.00 0.00 64 1015.2
20260510003308 75 4 2.0 3.0 0.00 0.00 0.00 64 1014.9
20260510002807 75 200 0.0 5.0 0.00 0.00 0.00 65 1015.1
20260510002307 75 276 2.0 6.0 0.00 0.00 0.00 65 1014.9
20260510001801 77 249 1.0 3.0 0.00 0.00 0.00 63 1015.1
20260510001259 75 241 4.0 4.0 0.00 0.00 0.00 64 1015.1
20260510000754 77 220 2.0 3.0 0.00 0.00 0.00 63 1015.1
20260510000253 75 203 0.0 5.0 0.00 0.00 0.00 64 1014.9
20260509235750 76 204 2.0 5.0 0.00 0.00 0.00 64 1015.0
20260509235246 77 243 0.0 4.0 0.00 0.00 0.00 63 1015.0
20260509234741 77 222 5.0 5.0 0.00 0.00 0.00 63 1014.9
20260509234239 76 345 0.0 4.0 0.00 0.00 0.00 63 1015.1
20260509233737 76 203 3.0 7.0 0.00 0.00 0.00 63 1015.1
20260509233234 76 255 0.0 4.0 0.00 0.00 0.00 62 1015.0
20260509232730 76 199 2.0 5.0 0.00 0.00 0.00 62 1015.0
20260509232227 76 250 2.0 4.0 0.00 0.00 0.00 62 1015.3
20260509231723 77 169 2.0 3.0 0.00 0.00 0.00 61 1015.3
20260509231221 77 239 2.0 3.0 0.00 0.00 0.00 62 1015.1
20260509230719 76 214 2.0 4.0 0.00 0.00 0.00 61 1015.4
20260509230215 77 45 0.0 3.0 0.00 0.00 0.00 62 1015.2
20260509225710 77 194 2.0 7.0 0.00 0.00 0.00 61 1015.3
20260509225207 77 188 0.0 4.0 0.00 0.00 0.00 61 1015.2
20260509224702 76 180 0.0 4.0 0.00 0.00 0.00 61 1015.1
20260509224159 76 264 2.0 4.0 0.00 0.00 0.00 63 1015.4
20260509223656 76 217 2.0 7.0 0.00 0.00 0.00 62 1015.2
20260509223153 76 237 0.0 5.0 0.00 0.00 0.00 62 1015.5
20260509222651 76 233 2.0 6.0 0.00 0.00 0.00 62 1015.6
20260509222146 75 225 3.0 5.0 0.00 0.00 0.00 63 1015.6
20260509221642 76 234 5.0 5.0 0.00 0.00 0.00 62 1015.6
20260509221138 76 253 3.0 5.0 0.00 0.00 0.00 63 1015.8
20260509220634 75 210 0.0 5.0 0.00 0.00 0.00 63 1016.0
20260509220130 75 266 2.0 4.0 0.00 0.00 0.00 63 1016.0
20260509215626 75 191 2.0 5.0 0.00 0.00 0.00 64 1016.0
20260509215123 75 218 5.0 5.0 0.00 0.00 0.00 64 1016.0
20260509214620 75 172 0.0 6.0 0.00 0.00 0.00 63 1015.9
20260509214117 75 243 3.0 5.0 0.00 0.00 0.00 64 1016.0
20260509213613 75 246 3.0 4.0 0.00 0.00 0.00 65 1015.9
20260509213110 74 197 0.0 5.0 0.00 0.00 0.00 64 1016.0
20260509212607 74 241 6.0 8.0 0.00 0.00 0.00 64 1016.0
20260509212104 74 283 0.0 4.0 0.00 0.00 0.00 65 1016.3
20260509211559 73 204 2.0 4.0 0.00 0.00 0.00 66 1016.3
20260509211057 74 265 2.0 3.0 0.00 0.00 0.00 65 1016.3
20260509210554 74 207 4.0 5.0 0.00 0.00 0.00 63 1016.5
20260509210050 76 206 0.0 5.0 0.00 0.00 0.00 63 1016.4
20260509205544 75 286 1.0 5.0 0.00 0.00 0.00 65 1016.4
20260509205039 75 216 2.0 5.0 0.00 0.00 0.00 64 1016.7
20260509204536 74 214 3.0 6.0 0.00 0.00 0.00 65 1016.7
20260509204032 74 270 2.0 6.0 0.00 0.00 0.00 67 1016.6
20260509203528 74 259 3.0 5.0 0.00 0.00 0.00 66 1016.6
20260509203027 75 235 0.0 6.0 0.00 0.00 0.00 65 1016.7
20260509202521 74 270 2.0 5.0 0.00 0.00 0.00 65 1016.7
20260509202017 73 233 3.0 4.0 0.00 0.00 0.00 67 1016.5
20260509201512 74 229 2.0 5.0 0.00 0.00 0.00 66 1016.8
20260509201009 71 265 0.0 3.0 0.00 0.00 0.00 67 1016.8
20260509200504 73 205 4.0 6.0 0.00 0.00 0.00 68 1016.7
20260509200001 73 228 2.0 3.0 0.00 0.00 0.00 67 1016.8
20260509195456 73 219 0.0 4.0 0.00 0.00 0.00 67 1017.0
20260509194955 73 209 1.0 4.0 0.00 0.00 0.00 66 1017.0
20260509194452 73 171 2.0 5.0 0.00 0.00 0.00 68 1017.1
20260509193949 72 270 0.0 4.0 0.00 0.00 0.00 67 1017.0
20260509193449 72 340 0.0 3.0 0.00 0.00 0.00 67 1017.1
20260509192945 72 270 0.0 3.0 0.00 0.00 0.00 68 1017.2
20260509192442 70 0 1.0 2.0 0.00 0.00 0.00 70 1017.2
20260509191937 72 200 3.0 5.0 0.00 0.00 0.00 67 1017.3
20260509191432 72 234 3.0 4.0 0.00 0.00 0.00 68 1017.4
20260509190928 71 117 0.0 0.0 0.00 0.00 0.00 68 1017.4
20260509190426 71 262 0.0 3.0 0.00 0.00 0.00 71 1017.4
20260509185923 69 203 1.0 2.0 0.00 0.00 0.00 71 1017.5
20260509185421 70 270 3.0 4.0 0.00 0.00 0.00 72 1017.5
20260509184917 70 246 0.0 5.0 0.00 0.00 0.00 72 1017.6
20260509184415 70 239 0.0 2.0 0.00 0.00 0.00 70 1017.6
20260509183911 68 157 0.0 2.0 0.00 0.00 0.00 72 1017.6
20260509183405 69 270 0.0 4.0 0.00 0.00 0.00 73 1017.6
20260509182902 70 249 0.0 3.0 0.00 0.00 0.00 72 1017.7
20260509182359 68 109 0.0 2.0 0.00 0.00 0.00 71 1017.9
20260509181856 70 234 1.0 3.0 0.00 0.00 0.00 71 1017.7
20260509181353 70 230 3.0 3.0 0.00 0.00 0.00 71 1017.7
20260509180851 69 349 0.0 4.0 0.00 0.00 0.00 74 1017.8
20260509180346 69 249 0.0 5.0 0.00 0.00 0.00 73 1017.6
20260509175844 69 262 0.0 3.0 0.00 0.00 0.00 74 1017.9
20260509175340 67 188 0.0 3.0 0.00 0.00 0.00 75 1018.0
20260509174836 67 73 0.0 3.0 0.00 0.00 0.00 75 1017.8
20260509174332 68 240 0.0 3.0 0.00 0.00 0.00 75 1017.8
20260509173828 68 225 0.0 3.0 0.00 0.00 0.00 73 1018.0
20260509173323 69 206 3.0 3.0 0.00 0.00 0.00 72 1017.7
20260509172820 67 140 0.0 2.0 0.00 0.00 0.00 74 1017.8
20260509172317 67 341 0.0 2.0 0.00 0.00 0.00 74 1017.8
20260509171812 66 97 0.0 1.0 0.00 0.00 0.00 76 1017.7
20260509171308 64 270 0.0 2.0 0.00 0.00 0.00 78 1017.8
20260509170805 66 212 2.0 2.0 0.00 0.00 0.00 78 1017.6
20260509170301 65 81 0.0 0.0 0.00 0.00 0.00 79 1017.8
20260509165800 66 117 0.0 0.0 0.00 0.00 0.00 79 1017.8
20260509165255 65 117 0.0 2.0 0.00 0.00 0.00 78 1017.7
20260509164751 64 90 0.0 0.0 0.00 0.00 0.00 80 1017.9
20260509164248 64 240 0.0 1.0 0.00 0.00 0.00 80 1017.6
20260509163745 64 300 0.0 2.0 0.00 0.00 0.00 83 1017.7
20260509163241 64 139 0.0 2.0 0.00 0.00 0.00 82 1017.7
20260509162739 65 229 0.0 2.0 0.00 0.00 0.00 83 1017.7
20260509162234 64 258 2.0 2.0 0.00 0.00 0.00 83 1017.8
20260509161730 64 232 0.0 2.0 0.00 0.00 0.00 83 1017.9
20260509161226 64 249 0.0 2.0 0.00 0.00 0.00 84 1017.7
20260509160721 64 261 0.0 1.0 0.00 0.00 0.00 85 1017.8
20260509160218 64 209 0.0 0.0 0.00 0.00 0.00 85 1017.9
20260509155713 64 209 0.0 0.0 0.00 0.00 0.00 86 1017.7
20260509155210 64 206 2.0 2.0 0.00 0.00 0.00 86 1017.8
20260509154706 64 261 0.0 3.0 0.00 0.00 0.00 86 1018.0
20260509154203 64 283 0.0 2.0 0.00 0.00 0.00 86 1017.9
20260509153700 64 243 0.0 3.0 0.00 0.00 0.00 87 1018.0
20260509153156 64 209 1.0 2.0 0.00 0.00 0.00 87 1017.9
20260509152652 63 270 0.0 2.0 0.00 0.00 0.00 87 1018.0
20260509152149 63 255 0.0 1.0 0.00 0.00 0.00 87 1017.7
20260509151646 63 257 0.0 1.0 0.00 0.00 0.00 88 1018.0
20260509151143 63 262 0.0 1.0 0.00 0.00 0.00 88 1018.0
20260509150641 63 262 0.0 0.0 0.00 0.00 0.00 89 1017.8
20260509150139 63 270 0.0 0.0 0.00 0.00 0.00 89 1017.9
20260509145635 63 270 0.0 0.0 0.00 0.00 0.00 89 1018.1
20260509145130 63 355 0.0 0.0 0.00 0.00 0.00 89 1017.8
20260509144627 63 270 0.0 0.0 0.00 0.00 0.00 89 1018.1
20260509144124 63 270 0.0 0.0 0.00 0.00 0.00 89 1018.1
20260509143621 63 270 0.0 0.0 0.00 0.00 0.00 89 1018.0
20260509143119 63 270 0.0 0.0 0.00 0.00 0.00 90 1018.0
20260509142614 63 270 0.0 0.0 0.00 0.00 0.00 90 1017.8
20260509142111 62 254 0.0 0.0 0.00 0.00 0.00 90 1018.0
20260509141607 63 261 0.0 0.0 0.00 0.00 0.00 91 1017.8
20260509141103 62 246 0.0 0.0 0.00 0.00 0.00 91 1017.5
20260509140600 62 246 0.0 1.0 0.00 0.00 0.00 91 1017.8
20260509140058 62 246 0.0 0.0 0.00 0.00 0.00 91 1017.8
20260509135555 62 285 0.0 1.0 0.00 0.00 0.00 91 1017.8
20260509135053 62 253 0.0 2.0 0.00 0.00 0.00 91 1017.8
20260509134549 62 254 0.0 1.0 0.00 0.00 0.00 92 1017.6
20260509134047 62 254 1.0 1.0 0.00 0.00 0.00 92 1017.7
20260509133544 62 270 0.0 0.0 0.00 0.00 0.00 92 1017.7
20260509133042 62 254 0.0 1.0 0.00 0.00 0.00 92 1017.7
20260509132540 62 279 0.0 2.0 0.00 0.00 0.00 92 1017.4
20260509132038 62 262 1.0 2.0 0.00 0.00 0.00 92 1017.6
20260509131533 61 229 0.0 2.0 0.00 0.00 0.00 92 1017.4
20260509131031 62 220 0.0 2.0 0.00 0.00 0.00 92 1017.3
20260509130526 62 279 0.0 0.0 0.00 0.00 0.00 93 1017.2
20260509130023 62 209 0.0 0.0 0.00 0.00 0.00 93 1017.4
20260509125520 62 215 0.0 3.0 0.00 0.00 0.00 93 1017.3
20260509125016 61 258 0.0 2.0 0.00 0.00 0.00 92 1017.3
20260509124513 62 212 0.0 2.0 0.00 0.00 0.00 92 1017.4
20260509124010 61 215 1.0 2.0 0.00 0.00 0.00 92 1017.1
20260509123508 62 228 0.0 3.0 0.00 0.00 0.00 92 1017.2
20260509123004 62 262 0.0 1.0 0.00 0.00 0.00 92 1017.3
20260509122500 62 254 0.0 2.0 0.00 0.00 0.00 92 1017.2
20260509121957 62 216 0.0 2.0 0.00 0.00 0.00 92 1017.3
20260509121454 62 246 1.0 1.0 0.00 0.00 0.00 92 1017.2
20260509120952 62 270 1.0 1.0 0.00 0.00 0.00 92 1017.2
20260509120450 62 251 0.0 2.0 0.00 0.00 0.00 92 1017.4
20260509115948 62 270 0.0 1.0 0.00 0.00 0.00 91 1017.6
20260509115445 62 270 0.0 0.0 0.00 0.00 0.00 91 1017.3
20260509114942 62 270 0.0 2.0 0.00 0.00 0.00 91 1017.2
20260509114440 62 264 0.0 0.0 0.00 0.00 0.00 91 1017.4
20260509113939 62 270 0.0 0.0 0.00 0.00 0.00 91 1017.3
20260509113436 62 254 0.0 0.0 0.00 0.00 0.00 91 1017.2
20260509112933 62 254 0.0 0.0 0.00 0.00 0.00 91 1017.2